{"data":{"norad_id":59392,"epoch":"2026-05-25T01:05:10.102848Z","epoch_age_seconds":78036,"freshness":"FRESH","line1":"1 59392U 24062U   26145.04525582  .00003715  00000+0  13755-3 0  9990","line2":"2 59392  53.1606 260.8649 0001498  98.4027 261.7144 15.30181800121363","mean_motion":15.301818,"eccentricity":0.0001498,"inclination_deg":53.1606,"raan_deg":260.8649,"arg_perigee_deg":98.4027,"mean_anomaly_deg":261.7144,"bstar":0.00013755,"rev_number":12136,"period_min":94.106464996512,"perigee_km":474.24277159687,"apogee_km":476.29605215787,"semimajor_km":6853.4064118774,"source":"CELESTRAK","updated_at":"2026-05-25T13:38:18.937349Z"}}